FW7930 Weather Reports


time (UTC)temp
F
wind
direction
speed
knots
gust
knots
rain 1hr
in
rain 24hr
in
rain mn
in
humidity
%
barometer
mb
20260505180040 79 194 4.3 16.5 0.00 0.00 0.00 36 1009.1
20260505174539 78 142 6.1 13.0 0.00 0.00 0.00 37 1009.3
20260505173038 78 191 2.6 12.2 0.00 0.00 0.00 40 1009.4
20260505171538 78 129 2.6 13.9 0.00 0.00 0.00 41 1009.4
20260505170027 78 167 1.7 7.8 0.00 0.00 0.00 42 1009.8
20260505164534 78 169 0.0 13.0 0.00 0.00 0.00 46 1010.0
20260505163024 77 174 3.5 10.4 0.00 0.00 0.00 47 1010.1
20260505161521 77 129 1.7 9.6 0.00 0.00 0.00 43 1010.2
20260505153020 76 208 0.9 4.3 0.00 0.00 0.00 46 1010.4
20260505151511 76 163 0.0 7.0 0.00 0.00 0.00 44 1010.2
20260505124527 61 148 0.9 4.3 0.00 0.00 0.00 66 1011.3
20260505123044 60 157 0.0 2.6 0.00 0.00 0.00 70 1011.4
20260505121529 59 161 0.0 4.3 0.00 0.00 0.00 69 1011.3
20260505120122 58 152 0.9 5.2 0.00 0.00 0.00 70 1011.2
20260505114600 58 171 1.7 6.1 0.00 0.00 0.00 70 1011.0
20260505113053 57 160 0.0 5.2 0.00 0.00 0.00 71 1011.0
20260505111554 57 124 1.7 7.8 0.00 0.00 0.00 71 1010.9
20260505101538 56 148 0.0 4.3 0.00 0.00 0.00 72 1010.1
20260505100033 56 146 0.9 4.3 0.00 0.00 0.00 71 1010.1
20260505094531 57 174 0.9 5.2 0.00 0.00 0.00 71 1010.0
20260505093034 57 153 0.0 4.3 0.00 0.00 0.00 71 1010.0
20260505091533 57 174 0.9 6.1 0.00 0.00 0.00 71 1009.9
20260505090042 57 139 0.0 4.3 0.00 0.00 0.00 71 1009.8
20260505084525 57 146 0.0 2.6 0.00 0.00 0.00 71 1009.9
20260505083121 57 140 0.0 0.0 0.00 0.00 0.00 70 1009.9
20260505081524 58 140 0.0 0.9 0.00 0.00 0.00 69 1009.9
20260505080041 58 138 0.0 2.6 0.00 0.00 0.00 69 1009.9
20260505074515 58 147 0.0 0.9 0.00 0.00 0.00 69 1009.7
20260505073017 58 153 0.0 1.7 0.00 0.00 0.00 68 1009.6
20260505071514 59 153 0.0 1.7 0.00 0.00 0.00 68 1009.6
20260505070018 59 151 0.0 2.6 0.00 0.00 0.00 67 1009.6
20260505064508 59 167 0.0 4.3 0.00 0.00 0.00 66 1009.7
20260505063007 60 156 0.0 2.6 0.00 0.00 0.00 65 1009.8
20260505061509 60 153 0.0 4.3 0.00 0.00 0.00 64 1009.7
20260505060002 61 162 0.9 4.3 0.00 0.00 0.00 64 1009.7
20260505054601 61 159 0.0 4.3 0.00 0.00 0.00 63 1009.8
20260505053106 61 144 1.7 7.8 0.00 0.00 0.00 62 1009.9
20260505051556 62 150 1.7 4.3 0.00 0.00 0.00 61 1009.8
20260505050124 62 140 0.9 5.2 0.00 0.00 0.00 60 1009.9
20260505041603 61 161 0.9 5.2 0.00 0.00 0.00 60 1009.7
20260505040057 61 182 0.9 3.5 0.00 0.00 0.00 60 1009.7
20260505034550 61 167 0.0 7.0 0.00 0.00 0.00 60 1009.7
20260505033050 60 134 0.9 3.5 0.00 0.00 0.00 61 1009.6
20260505031549 60 130 0.0 1.7 0.00 0.00 0.00 59 1009.7
20260505030047 60 139 0.0 0.0 0.00 0.00 0.00 59 1009.8
20260505024549 60 139 0.0 0.9 0.00 0.00 0.00 59 1009.8
20260505023050 60 139 0.0 0.0 0.00 0.00 0.00 57 1009.9
20260505020045 62 139 0.0 0.0 0.00 0.00 0.00 53 1009.7
20260505014601 63 139 0.0 0.0 0.00 0.00 0.00 51 1009.8
20260505013043 64 139 0.0 0.0 0.00 0.00 0.00 50 1009.7
20260505011541 65 141 0.0 0.0 0.00 0.00 0.00 48 1009.4
20260505010040 66 141 0.0 2.6 0.00 0.00 0.00 47 1009.3
20260505004544 67 143 0.0 4.3 0.00 0.00 0.00 46 1009.2
20260505003040 67 149 0.9 4.3 0.00 0.00 0.00 45 1009.2
20260505001537 68 121 1.7 5.2 0.00 0.00 0.00 44 1009.0
20260505000040 68 140 0.0 4.3 0.00 0.00 0.00 43 1009.0
20260504234546 69 141 1.7 7.0 0.00 0.00 0.00 42 1008.9
20260504233035 70 137 3.5 10.4 0.00 0.00 0.00 40 1008.7
20260504231531 71 167 3.5 8.7 0.00 0.00 0.00 39 1008.8
20260504230030 71 144 1.7 7.8 0.00 0.00 0.00 39 1008.8
20260504224530 71 139 1.7 9.6 0.00 0.00 0.00 39 1008.9
20260504223029 72 169 3.5 8.7 0.00 0.00 0.00 39 1008.8
20260504221558 72 136 4.3 10.4 0.00 0.00 0.00 37 1008.7
20260504220100 72 162 0.9 8.7 0.00 0.00 0.00 38 1008.8
20260504214600 73 193 3.5 12.2 0.00 0.00 0.00 37 1008.9
20260504213125 73 186 3.5 13.0 0.00 0.00 0.00 38 1008.8
20260504211556 73 121 3.5 9.6 0.00 0.00 0.00 39 1008.9
20260504210052 73 126 3.5 12.2 0.00 0.00 0.00 38 1008.9
20260504204554 73 138 5.2 10.4 0.00 0.00 0.00 38 1008.9
20260504203059 72 153 3.5 11.3 0.00 0.00 0.00 39 1009.1
20260504201545 72 113 3.5 10.4 0.00 0.00 0.00 38 1009.4
20260504201543 72 123 3.5 10.4 0.00 0.00 0.00 38 1009.4
20260504200044 73 282 0.0 7.8 0.00 0.00 0.00 39 1009.7
20260504194555 73 202 0.9 7.8 0.00 0.00 0.00 39 1009.9
20260504193043 72 5 0.9 7.0 0.00 0.00 0.00 40 1010.2
20260504191533 72 161 2.6 7.0 0.00 0.00 0.00 41 1010.4
20260504190128 71 105 2.6 8.7 0.00 0.00 0.00 41 1010.6
20260504184526 70 148 4.3 13.9 0.00 0.00 0.00 41 1010.9
20260504183025 69 139 1.7 13.0 0.00 0.00 0.00 43 1011.2
20260504181522 70 177 3.5 12.2 0.00 0.00 0.00 40 1011.4